Regional Weather Roundup
Issued by NWS Goodland, KS

Home | Current Version | Previous Version | Graphics & Text | Print | Product List | Glossary On
Versions: 1 2 3 4 5 6 7 8 9 10 11 12 13 14 15 16 17 18 19 20 21 22 23 24 25 26 27 28 29 30 31 32 33 34 35 36 37 38 39 40 41 42 43 44 45 46 47 48 49 50
000
ASUS43 KGLD 300059
RWRGLD

GOODLAND FORECAST AREA HOURLY WEATHER ROUNDUP
NATIONAL WEATHER SERVICE GOODLAND KS
600 PM MST THU JAN 29 2015

...OFFICIAL OBSERVATIONS...

CITY           SKY/WX    TMP DP  RH WIND       PRES   REMARKS
GOODLAND KS    MOCLDY    32  20  61 E7        30.47S
HILL CITY KS   PTCLDY    30  19  63 NW5       30.50R
IMPERIAL NEB   PTCLDY    34  18  52 CALM      30.47S
MCCOOK NEB     CLEAR     37  20  50 NW5       30.48R
AKRON CO       PTCLDY    36  18  48 SE6       30.42F
BURLINGTON CO  PTCLDY    36  13  38 E5        30.45S
LIMON CO       MOCLDY    36  22  56 S8        30.43S
$$

...UNOFFICIAL OBSERVATIONS...

CITY           SKY/WX    TMP DP  RH WIND       PRES   REMARKS
COLBY KS       CLEAR     39  27  60 N5        30.48F
GOVE KS          N/A     39  32  76 MISG        N/A
NORTON KS      CLEAR     36  18  48 W3        30.48S
SHARON SPRINGS   N/A     39  20  47 E5          N/A
KIT CARSON CO    N/A     36  16  44 MISG        N/A
YUMA CO          N/A     36  15  42 E5          N/A
$$


USA.gov is the U.S. government's official web portal to all federal, state and local government web resources and services.